When you browse on this site, cookies collect data to enhance your experience and personalize the content and advertising you see.
Visit our Privacy Policy to learn more. By continuing to use the site, you agree to this use of cookies and data.
  • En España
  • Lista de países
  • Para 7 días
  • Temperatura del agua
  • El tiempo en el mapa
  • Informadores
  • user-avatar
    Iniciar sesión

    Tiempo cada hora Grinevo

    Hoy, 24 Agosto, Sábado

    Tiempo Temperatura Precipitaciones Viento Presión Humedad
    00:00 +13°C° 0 mm 1 mps 750 mmHg 86%
    01:00 +12°C° 0 mm 0 mps 750 mmHg 87%
    02:00 +11°C° 0 mm 0 mps 750 mmHg 87%
    03:00 +12°C° 0 mm 1 mps 750 mmHg 88%
    04:00 +12°C° 0 mm 1 mps 750 mmHg 88%
    05:00 +12°C° 0 mm 1 mps 750 mmHg 89%
    06:00 +14°C° 0 mm 2 mps 749 mmHg 85%
    07:00 +15°C° 0 mm 2 mps 749 mmHg 81%
    08:00 +17°C° 0 mm 2 mps 749 mmHg 77%
    09:00 +18°C° 0 mm 2 mps 749 mmHg 73%
    10:00 +20°C° 0 mm 3 mps 749 mmHg 69%
    11:00 +21°C° 0 mm 3 mps 749 mmHg 65%
    12:00 +21°C° 0 mm 3 mps 749 mmHg 64%
    13:00 +22°C° 0 mm 4 mps 749 mmHg 63%
    14:00 +22°C° 0 mm 4 mps 748 mmHg 62%
    15:00 +22°C° 0 mm 3 mps 748 mmHg 66%
    16:00 +22°C° 0 mm 3 mps 748 mmHg 70%
    17:00 +21°C° 0 mm 3 mps 748 mmHg 74%
    18:00 +20°C° 0 mm 2 mps 748 mmHg 78%
    19:00 +18°C° 0 mm 2 mps 748 mmHg 83%
    20:00 +17°C° 0 mm 2 mps 748 mmHg 87%
    21:00 +16°C° 0 mm 2 mps 748 mmHg 89%
    22:00 +15°C° 0 mm 2 mps 748 mmHg 91%
    23:00 +15°C° 0 mm 2 mps 748 mmHg 93%

    Mañana, 25 Agosto, Domingo

    Tiempo Temperatura Precipitaciones Viento Presión Humedad
    00:00 +15°C° 0 mm 2 mps 748 mmHg 93%
    01:00 +14°C° 0 mm 2 mps 748 mmHg 93%
    02:00 +14°C° 0 mm 1 mps 748 mmHg 93%
    03:00 +14°C° 0 mm 2 mps 748 mmHg 94%
    04:00 +13°C° 0 mm 2 mps 749 mmHg 94%
    05:00 +13°C° 0 mm 2 mps 749 mmHg 94%
    06:00 +14°C° 0 mm 2 mps 749 mmHg 89%
    07:00 +16°C° 0 mm 2 mps 749 mmHg 84%
    08:00 +17°C° 0 mm 2 mps 750 mmHg 79%
    09:00 +18°C° 0 mm 2 mps 750 mmHg 73%
    10:00 +20°C° 0 mm 2 mps 750 mmHg 67%
    11:00 +21°C° 0 mm 2 mps 750 mmHg 62%
    12:00 +21°C° 0 mm 2 mps 750 mmHg 60%
    13:00 +21°C° 0 mm 2 mps 750 mmHg 58%
    14:00 +23°C° 0 mm 2 mps 750 mmHg 56%
    15:00 +21°C° 0 mm 2 mps 750 mmHg 60%
    16:00 +21°C° 0 mm 2 mps 750 mmHg 65%
    17:00 +22°C° 0 mm 1 mps 750 mmHg 69%
    18:00 +20°C° 0 mm 1 mps 750 mmHg 74%
    19:00 +18°C° 0 mm 1 mps 750 mmHg 78%
    20:00 +15°C° 0 mm 1 mps 750 mmHg 83%
    21:00 +14°C° 0 mm 1 mps 750 mmHg 85%
    22:00 +13°C° 0 mm 1 mps 750 mmHg 87%
    23:00 +13°C° 0 mm 1 mps 750 mmHg 89%

    Pasado mañana, 26 Agosto, Lunes

    Tiempo Temperatura Precipitaciones Viento Presión Humedad
    00:00 +13°C° 0 mm 1 mps 750 mmHg 90%
    01:00 +12°C° 0 mm 1 mps 751 mmHg 91%
    02:00 +12°C° 0 mm 1 mps 751 mmHg 91%
    03:00 +12°C° 0 mm 1 mps 750 mmHg 91%
    04:00 +11°C° 0 mm 1 mps 750 mmHg 92%
    05:00 +10°C° 0 mm 0 mps 750 mmHg 92%
    06:00 +12°C° 0 mm 0 mps 750 mmHg 87%
    07:00 +14°C° 0 mm 0 mps 750 mmHg 82%
    08:00 +16°C° 0 mm 0 mps 750 mmHg 77%
    09:00 +17°C° 0 mm 0 mps 750 mmHg 72%
    10:00 +20°C° 0 mm 1 mps 750 mmHg 67%
    11:00 +22°C° 0 mm 1 mps 750 mmHg 62%
    12:00 +22°C° 0 mm 1 mps 750 mmHg 60%
    13:00 +23°C° 0 mm 2 mps 750 mmHg 58%
    14:00 +23°C° 0 mm 2 mps 749 mmHg 56%
    15:00 +23°C° 0 mm 2 mps 749 mmHg 61%
    16:00 +21°C° 0 mm 2 mps 749 mmHg 66%
    17:00 +22°C° 0 mm 1 mps 748 mmHg 70%
    18:00 +20°C° 0 mm 1 mps 748 mmHg 74%
    19:00 +18°C° 0 mm 1 mps 748 mmHg 78%
    20:00 +15°C° 0 mm 1 mps 748 mmHg 82%
    21:00 +15°C° 0 mm 1 mps 748 mmHg 83%
    22:00 +14°C° 0 mm 1 mps 748 mmHg 83%
    23:00 +14°C° 0 mm 1 mps 748 mmHg 84%

    27 Agosto, Martes

    Tiempo Temperatura Precipitaciones Viento Presión Humedad
    00:00 +14°C° 0 mm 2 mps 747 mmHg 85%
    01:00 +14°C° 0 mm 2 mps 747 mmHg 86%
    02:00 +14°C° 0 mm 2 mps 747 mmHg 87%
    03:00 +14°C° 0 mm 2 mps 747 mmHg 89%
    04:00 +14°C° 0 mm 2 mps 746 mmHg 92%
    05:00 +14°C° 0 mm 2 mps 746 mmHg 95%
    06:00 +14°C° 0 mm 3 mps 746 mmHg 91%
    07:00 +16°C° 0 mm 3 mps 746 mmHg 88%
    08:00 +18°C° 0 mm 3 mps 746 mmHg 85%
    09:00 +19°C° 0 mm 4 mps 746 mmHg 79%
    10:00 +20°C° 0 mm 4 mps 746 mmHg 73%
    11:00 +22°C° 0 mm 5 mps 746 mmHg 67%
    12:00 +22°C° 0 mm 5 mps 746 mmHg 67%
    13:00 +22°C° 0 mm 5 mps 746 mmHg 66%
    14:00 +22°C° 0 mm 5 mps 746 mmHg 65%
    15:00 +22°C° 0 mm 5 mps 746 mmHg 67%
    16:00 +21°C° 0 mm 4 mps 746 mmHg 69%
    17:00 +21°C° 0 mm 4 mps 746 mmHg 71%
    18:00 +19°C° 0 mm 4 mps 746 mmHg 73%
    19:00 +17°C° 0 mm 4 mps 746 mmHg 74%
    20:00 +14°C° 0 mm 3 mps 746 mmHg 76%
    21:00 +13°C° 0 mm 3 mps 746 mmHg 79%
    22:00 +12°C° 0 mm 3 mps 747 mmHg 83%
    23:00 +11°C° 0 mm 3 mps 747 mmHg 86%

    28 Agosto, Miércoles

    Tiempo Temperatura Precipitaciones Viento Presión Humedad
    00:00 +11°C° 0 mm 3 mps 747 mmHg 89%
    01:00 +10°C° 0 mm 2 mps 748 mmHg 91%
    02:00 +10°C° 0 mm 2 mps 748 mmHg 94%
    03:00 +9°C° 0 mm 2 mps 748 mmHg 94%
    04:00 +9°C° 0 mm 2 mps 748 mmHg 94%
    05:00 +8°C° 0 mm 2 mps 749 mmHg 94%
    06:00 +10°C° 0 mm 2 mps 749 mmHg 87%
    07:00 +12°C° 0 mm 2 mps 749 mmHg 80%
    08:00 +14°C° 0 mm 2 mps 749 mmHg 72%
    09:00 +15°C° 0 mm 2 mps 749 mmHg 67%
    10:00 +16°C° 0 mm 3 mps 749 mmHg 61%
    11:00 +17°C° 0 mm 3 mps 749 mmHg 55%
    12:00 +17°C° 0 mm 3 mps 749 mmHg 53%
    13:00 +18°C° 0 mm 3 mps 749 mmHg 52%
    14:00 +18°C° 0 mm 4 mps 749 mmHg 50%
    15:00 +18°C° 0 mm 3 mps 749 mmHg 55%
    16:00 +18°C° 0 mm 2 mps 749 mmHg 59%
    17:00 +17°C° 0 mm 2 mps 748 mmHg 64%
    18:00 +15°C° 0 mm 2 mps 749 mmHg 66%
    19:00 +13°C° 0 mm 2 mps 749 mmHg 68%
    20:00 +10°C° 0 mm 2 mps 749 mmHg 71%
    21:00 +10°C° 0 mm 2 mps 749 mmHg 71%
    22:00 +9°C° 0 mm 2 mps 749 mmHg 72%
    23:00 +8°C° 0 mm 2 mps 749 mmHg 73%

    29 Agosto, Jueves

    Tiempo Temperatura Precipitaciones Viento Presión Humedad
    00:00 +9°C° 0 mm 1 mps 749 mmHg 74%
    01:00 +8°C° 0 mm 1 mps 749 mmHg 75%
    02:00 +8°C° 0 mm 1 mps 749 mmHg 75%
    03:00 +7°C° 0 mm 1 mps 749 mmHg 76%
    04:00 +7°C° 0 mm 1 mps 749 mmHg 76%
    05:00 +7°C° 0 mm 1 mps 750 mmHg 77%
    06:00 +8°C° 0 mm 1 mps 750 mmHg 72%
    07:00 +10°C° 0 mm 1 mps 750 mmHg 67%
    08:00 +12°C° 0 mm 1 mps 750 mmHg 62%
    09:00 +14°C° 0 mm 1 mps 749 mmHg 58%
    10:00 +15°C° 0 mm 1 mps 749 mmHg 53%
    11:00 +18°C° 0 mm 1 mps 749 mmHg 49%
    12:00 +18°C° 0 mm 1 mps 749 mmHg 49%
    13:00 +19°C° 0 mm 1 mps 749 mmHg 50%
    14:00 +20°C° 0 mm 1 mps 749 mmHg 50%
    15:00 +20°C° 0 mm 1 mps 748 mmHg 56%
    16:00 +20°C° 0 mm 1 mps 748 mmHg 61%
    17:00 +20°C° 0 mm 1 mps 748 mmHg 66%
    18:00 +18°C° 0 mm 1 mps 748 mmHg 71%
    19:00 +15°C° 0 mm 1 mps 748 mmHg 77%
    20:00 +13°C° 0 mm 1 mps 748 mmHg 82%
    21:00 +12°C° 0 mm 1 mps 748 mmHg 84%
    22:00 +12°C° 0 mm 1 mps 748 mmHg 87%
    23:00 +12°C° 0 mm 1 mps 748 mmHg 89%
    Mostrar más